 8J1JCS>BEACON [08/27/99  14:15:21]:
 JAS-2    '97/08/27 05:15:40
 9C 03 63 08 00 9D 00 00 00 00
 00 00 9D 07 7D 87 60 94 91 B0
 AA 52 A8 02 E2 BC BF C0 BD BD
         
 8J1JCS>BEACON [08/27/99  14:15:22]:95 02 00 09 00 00 78 40 00 00
 3B 6B E9 55 25 99 9D 7E 8C 85
 00 00 00 B3 7C B3 F7 00 00 00
  
 テレメトリ      内   容      換算値   単 位 
 F1ー12	磁気センサーX軸=      114215.7 [nT]
 F1ー13	磁気センサーZ軸=	41666.7 [nT]
 F0ー15	太陽電池発生電流=	 1323.5 [mA]
 F0ー16	B充放電電流	=	  118.4	[mA]
 F0ー17	B端子電圧	=	   15.9	[V]
 F0ー18	B中間端子電圧	=	    7.0	[V]
 F0ー19	バス電圧	=	   17.3	[V]
 F0ー20	+5安定化電圧	=	    5.1	[V]
 F0ー21	ー5V安定化電圧	=	   -4.9	[V]
 F0ー22	+10V安定化電圧=	   10.1	[V]
 F0ー23	JTA出力電力	=	  -85.1	[mW]
 F0ー24	JTD出力電力	=	 1670.8	[mW]
 F0ー25	Bセル温度	=	    8.9	[℃]
 F0ー26	構体温度ー1	=	    7.7	[℃]
 F0ー27	構体温度ー2	=	    7.3	[℃]
 F0ー28	構体温度ー3	=	    8.5	[℃]
 F0ー29	構体温度ー4	=	    8.5	[℃]
 F1ー18	太陽電池パネル温度ー1=   33.8	[℃]
 F1ー19	太陽電池パネル温度ー2=   17.9	[℃]
 F1ー24	太陽電池パネル温度ー3=   -2.5	[℃]
 F1ー23	JTD  Tr温度      =   12.4	[℃]

  *計算処理は OFFICE 97 を使用.

-------------  FO-29 (JAS-2,ふじ2号)のテレメトリーについて----------------- 
  
  FO-29の運用についてJE9PEL/1脇田 美根夫氏が[jamsat-bb:4643]に投稿されて
 いましたので転載させて頂きました. 

  衛星FO-29 の 8月23,24,25日の状態は、JARL発表とは異なり
 JA(アナログ)モードとなっています。この3日間のCWの
 ビーコンデータを「fo29cwt2プログラム」を用いて解析した
 結果を以下に添付します。(zip圧縮型式)
 ----------------------------------------------
 Name : JE9PEL/1 脇田
 Mail : je9pel@jamsat.or.jp
 URL  : http://www.ne.jp/asahi/hamradio/je9pel/
 QTH  : Yokohama, Japan
 Date : 25 Aug.1999
 ----------------------------------------------

===================================================================================
  4)FO−20(ふじ2号)のCWテレメトリは6月15日(火)18:56(JST)の
     パスではテレメトリーが単一トーンの連続音から唸りを伴った連続音、さらにゆらぎの
     ある信号になり、いままでより若干信号が弱くなっていました.

-----------------------    FO-20(JAS-1b)道要素   -------------------------------
 
 ■ 軌道要素1 :出典は「ふじ3号」に同じ.
  
  FO-20
 1 20480U 90013C   99238.03776536 -.00000020  00000-0  27716-4 0 01672
 2 20480 099.0214 059.4485 0540571 006.3202 354.4371 12.83254977447292
 
 ■ 軌道要素2 :出典は「ふじ3号」に同じ.
               
  Satellite: FO-20
 Catalog number: 20480
 Epoch time:      99238.03776536
 Element set:    0167
 Inclination:      099.0214 deg
 RA of node:       059.4485 deg
 Eccentricity:    0.0540571
 Arg of perigee:   006.3202 deg
 Mean anomaly:     354.4371 deg
 Mean motion:   12.83254977 rev/day
 Decay rate:       -2.0e-07 rev/day^2
 Epoch rev:           44729
 Checksum:              308
 
   ==================================================================================

 5)JARL のホームページに運用予定が記載されていましたのでご紹介します.
       ( http://www.jarl.or.jp/Japanese/3_Fuji/uy.htm )

        ■ ふじ3号/FO−29/JAS-2 ■  
  
  *** 運用予定について ***
    
  *8月27日 〜 8月30日     デジタル系1200bpsメールボックス運用
   8月30日 〜 9月09日     アナログ系運用

 ※9月〜10月にかけて新音声データでのデジトーカ運用を実施いたしますのでご期待ください。

  *:運用予定を変更いたします。
  
 なお,運用予定は都合により変更することがありますのでご了承願います。

 照会先 : lab@jarl.or.jp

 最新の情報はテレホンサービス(:03−3942−1000)をお聞きください。 
     
         ■ ふじ2号/FO−20/JAS-1b ■      
            「ふじ2号」 現況                                                                                               
   JAS-1b/FO-20(ふじ2号)の不具合発生について
    JAS-1b(ふじ2号)のCWテレメトリ信号に,1997年10月12日12時
 (JST)の日本上空通過時,3桁の数字が繰り返されるはずが3個の長音の
  繰り返しとなっているという異常が発見されました。この不具合は次の通過時
  からは回復していましたが13日15時20分の通過時に再び観測されました。
  衛星のアナログ系中継モード動作は異常が無く,正常時のテレメトリ内容からは
  衛星の動作に異常は認められません。従って,直ちに衛星のミッションに影響す
  ることは無いと予想されますので,当面はアナログ系中継モードを継続します。
  衛星は既に打ち上げてから7年8ヶ月を経ておりますので,今後は監視を強化す
  る予定です。アマチュア各位のレポートをお待ちします.   
  
  以上  http://www.jarl.or.jp/Japanese/3_Fuji/fuji.htm
                                           
   =============   JAS-2 (ふじ3号)と現在までの情報   ===========
  
  A.電話によるふじ3号の運用情報
      社団法人日本アマチュア連盟によるサービス
           TEL .   03− 3942 − 1000
  B.アマチュア無線FAXサービス
      JARLによるふじ3号の軌道情報(オービットカレンダー)
         FAX No.  03− 3233 −0055
  C.WWWブラウザで情報を簡単に見れる人のためにJAS−2
     ふじ3号の衛星としての運用されるまでの名前)の概要、打ち上げ
     までの状況、運用中における状況を説明したホームページを紹介し
     ておきます.
     社団法人日本アマチュア無線連盟(JARL)のホームページ

          http://www.jarl.or.jp/Japanese/3_Fuji
 
     宇宙開発事業団(NASDA)ホームページ 
          http://www.nasda.go.jp/
         打上げ衛星 :地球観測プラットフォーム技術衛星(ADEOS) 
                       アマチュア衛星3号(JAS-2)
          http://yyy.tksc.nasda.go.jp/Home/Press/Press-j/jas-2_j.html        

  D.JAMSATによる軌道情報の活用
        JAMSATのホームページまたはjamsat−kepsの軌道要素より
      衛星の軌道情報を得る.
     JAMSATホームページ
               URL    http://www.jamsat.or.jp
       上記ホームページでは各地で行われるアマチュア通信衛星に関する
      ミューティングのお知らせや世界のアマチュア衛星に関する情報が
      満載されています.
   
 =========================================================================
       JAMSATのメンバーのご協力によりJH6MME(高山 秀造)が
    執筆・編集を担当しております.ご指摘の意見、疑問やこのようにしたら
    というアイデアがありましたら小さなことでもかまいませんので気軽に下
    記アドレスまでご連絡ください.jamsat−newsからjas2
    infoへの転載をJH4PHW局坂井さんに担当して頂いております.
                    E-mail : jh6mme@jamsat.or.jp : jh4phw@jamsat.or.jp
 ===============================   END  ===============================